Regional Weather Roundup
Issued by NWS Upton, NY

Current Version | Previous Version | Text Only | Print | Product List | Glossary On
Versions: 1 2 3 4 5 6 7 8 9 10 11 12 13 14 15 16 17 18 19 20 21 22 23 24 25 26
000
ASUS41 KOKX 260605
RWROKX

Regional Weather Roundup
National Weather Service New York NY
200 AM EDT SAT MAY 26 2018

Note: "FAIR" indicates few or no clouds below 12,000 feet with no
significant weather and/or obstructions to visibility.

NYZ071-072-176-178-NJZ106-104-260700-
New York City Metro Area

CITY           SKY/WX    TMP DP  RH WIND       PRES   REMARKS
Central Park   FAIR      75  64  68 VRB3      29.86F
Bronx Bot Gard   N/A     75  63  64 W7        29.85R
Bronx Lehman C   N/A     75  63  64 SW9         N/A
LaGuardia Arpt FAIR      77  63  61 SW8G18    29.82F
Queens College   N/A     75  63  64 SW10        N/A
Kennedy Intl   FAIR      68  65  90 SW8       29.85F
Breezy Point     N/A     64 N/A N/A SW6         N/A
Brooklyn Coll    N/A     73  63  68 SW9         N/A
Staten Island    N/A     73  64  73 SW8         N/A
Newark/Liberty FAIR      73  63  70 SW8       29.83F
Teterboro      FAIR      75  65  70 SW7       29.82F
$$

NYZ177-179-078>081-260700-
Long Island New York

CITY           SKY/WX    TMP DP  RH WIND       PRES   REMARKS
Jones Beach      N/A     63 N/A N/A SW6         N/A
Wantagh          N/A     66  61  82 SW6         N/A
Hempstead        N/A     70  63  78 S3        29.86F
Matinecock Pt    N/A     72 N/A N/A SW14        N/A
Farmingdale    FAIR      69  62  78 SW8       29.84F
MacArthur/ISP  FAIR      67  62  84 SW9       29.83F
Stony Brook      N/A     70  63  78 SW3         N/A
Shirley        FAIR      67  62  84 SW9G20    29.84F
Mt Sinai Harb    N/A    N/A N/A N/A SW10G16     N/A
Westhampton    FAIR      64  58  80 SW10G18   29.85F
East Hampton   FAIR      65  59  80 SW10G20   29.83S
Southold         N/A     70  63  78 SW8         N/A
Montauk          N/A     68  60  75 SW8G18    29.83S
$$

NYZ052-065-067-260700-
Hudson Valley

CITY           SKY/WX    TMP DP  RH WIND       PRES   REMARKS
White Plains   FAIR      74  62  66 W6        29.82F
Larchmont Harb   N/A     73 N/A N/A SW16        N/A
Croton On Huds   N/A     73 N/A N/A SE2         N/A
Somers           N/A     72  63  73 SW6         N/A
Brewster         N/A     66  61  82 SE2         N/A
Newburgh       CLEAR     72  64  78 W5        29.82S
Montgomery     FAIR      67  61  81 CALM      29.80F
Otisville        N/A     70  63  78 SW5         N/A
Warwick          N/A     73  64  73 W10         N/A
Suffern          N/A     72  63  73 SW3         N/A
Poughkeepsie   FAIR      70  60  70 W3        29.79F
Albany         MOCLDY    64  52  64 S5        29.77F
$$

NJZ001-105-106-008-010-013-015-019>022-104-260700-
New Jersey

CITY           SKY/WX    TMP DP  RH WIND       PRES   REMARKS
Newark/Liberty FAIR      73  63  70 SW8       29.83F
Teterboro      FAIR      75  65  70 SW7       29.82F
Caldwell       FAIR      72  64  76 VRB3      29.84S
Somerville     FAIR      63  63 100 CALM      29.83F
Linden         FAIR      74  62  67 CALM      29.84F
Perth Amboy      N/A     73 N/A N/A SW8         N/A
Sussex         FAIR      68  62  81 SW3       29.83F
Andover          N/A     66  64  93 CALM      29.85F
Trenton        FAIR      73  64  73 SW7       29.85F
Millville      FAIR     N/A N/A N/A CALM      29.89F
Atlantic City  FAIR      69  64  84 SW6       29.89F
Wrightstown    FAIR      70  62  77 SW7       29.85
Toms River     FAIR      69  62  78 SW8       29.88F
Belmar         FAIR      72  62  71 SW10      29.88F
$$

PAZ047>061-062-071-260700-
Eastern Pennsylvania

CITY           SKY/WX    TMP DP  RH WIND       PRES   REMARKS
Philadelphia   FAIR      72  63  73 SW7       29.88F
Allentown      FAIR      69  62  78 W3        29.85F
Scranton       FAIR      72  61  68 SW6       29.85F
$$

CTZ002-004>006-009-010-012-RIZ004-006-007-MAZ004-011-015-260700-
Southern New England

 In CT

CITY           SKY/WX    TMP DP  RH WIND       PRES   REMARKS
Bradley Intl   FAIR      66  59  78 S5        29.77F
Hartford       FAIR      66  60  81 S5        29.78F
Danbury        FAIR      71  62  73 W6        29.83F
Wtrbury/Oxford FAIR      69  61  75 W5        29.83F
Norwalk Harbor   N/A     63 N/A N/A SW16        N/A
Bridgeport     FAIR      67  60  78 SW6       29.81F
Meriden        FAIR      61  59  93 S5        29.80F
New Haven      FAIR      68  60  75 SW7       29.81F
Chester        FAIR      66  61  82 SW7       29.82S
Groton         FAIR      68  61  78 W12G18    29.80F
Willimantic    FAIR      68  60  75 SW5       29.79F

 In RI

CITY           SKY/WX    TMP DP  RH WIND       PRES   REMARKS
Providence     FAIR      70  59  68 SW12      29.78F
Block Island   NOT AVBL
Westerly       FAIR      66  60  81 SW6       29.81F

In MA

CITY           SKY/WX    TMP DP  RH WIND       PRES   REMARKS
Boston         FAIR      71  58  63 SW14      29.73F
Worcester      FAIR      66  55  67 W12       29.78F
Westfield      FAIR      62  58  86 S3        29.76F
Provincetown   FAIR      59  56  89 SW13      29.75F
Nantucket      FAIR      56  54  93 SW16      29.81F
$$

ANZ330-335-338-340-345-350-353-355-260700-
Coastal Marine Observations


STATION/POSITION TIME  SKY/WX   TEMP    WIND        PRES    VSBY  WAVE
                                AIR SEA DIR/SP/G                  HT/PER
                 (UTC)          (F)     (DEG/KT/KT) (MB)    (MI)  (FT/S)
NY Harb Entrance 0550            63 60  210/ 14/ 16 1010.8          3/ 5
20 S Fire Island 0550            60 54  230/ 16/ 17 1010.9          4/ 6
23 SSW Montauk P 0550            59 54  230/ 17/ 19 1010.4          6/ 7
15 E Barnegat Li 0530               59                N/A           4/ 5
Hudson Canyon    0550            59 54  220/ 16/ 17 1012.0          4/ 5
Kings Point      0536               61  270/ 12/ 14 1011.0
Execution Rocks  NOT AVBL
Western LI Sound 0520            68     230/ 10/ 14   N/A           1
Central LI Sound 0545            64     210/ 14/ 16   N/A           2
Robbins Reef     0536                   240/ 11/ 13 1011.0
$$


>>>>>>>>>>>>>>>>>>>>>>>>>>>> KEY <<<<<<<<<<<<<<<<<<<<<<<<<<<
>                                                          <
>     SKY/WX - Sky Condition/Present Weather               <
>     TMP    - Temperature in Fahrenheit                   <
>     DP     - Dew Point in Fahrenheit                     <
>     RH     - Relative Humidity in Percent                <
>     WIND   - Direction (from) and Speed in MPH           <
>     PRES   - Mean Sea Level Pressure (inches of Hg)      <
>     WCI    - Wind Chill Index                            <
>     VSB    - Visibility in Miles                         <
>     HX     - Heat Index                                  <
>     TC     - Temperature in Celsius                      <
>     VRB    - Varibale Wind Direction                     <
>                                                          <
>>>>>>>>>>>>>>>>>>>>>>>>>>>> KEY <<<<<<<<<<<<<<<<<<<<<<<<<<<




USA.gov is the U.S. government's official web portal to all federal, state and local government web resources and services.